    Orbital elements:
    2010 JE215                                                                      
    Epoch 2020 Dec. 17.0 TT = JDT 2459200.5                 Pike                    
    M   4.73539              (2000.0)            P               Q                  
    n   0.00196645     Peri.  120.02213     -0.35255806     +0.92341565             
    a  63.0977358      Node   128.54478     -0.91142769     -0.30209511             
    e   0.5674758      Incl.   11.18235     -0.21213763     -0.23673208             
    P 501              H    8.33          G   0.15           U   2                  
    Residuals in seconds of arc
    100510 F51  0.0-  0.2+    140702 F51  0.0+  0.1-    150623 F51  0.0-  0.0+
    100510 F51  0.0-  0.1-    140702 F51  0.1-  0.1+    150623 F51  0.1-  0.2+
    100511 F51  0.3-  0.1-    140702 F51  0.0-  0.0-    150623 F51  0.1-  0.2-
    100511 F51  0.3+  0.2+    140702 F51  0.0-  0.2+    150623 F51  0.0-  0.0+
    100604 F51 (0.5+  0.0-)   140702 F51  0.4-  0.1+    150623 F51  0.2-  0.3-
    120613 F51  0.1-  0.1+    140702 F51  0.1-  0.0-    150623 F51  0.0-  0.1-
    120613 F51  0.1+  0.0+    140704 F51  0.1+  0.1+    150623 F51  0.0+  0.1-
    120613 F51  0.2+  0.0-    140726 F51  0.0+  0.0-    150623 F51  0.2-  0.1+
    120613 F51  0.1+  0.2-    140726 F51  0.1+  0.1-    150624 F51  0.2-  0.2-
    130502 F51  0.0+  0.2-    140726 F51  0.0-  0.1-    150713 F51 (0.7-  0.2+)
    130609 F51  0.1-  0.1-    140726 F51  0.1-  0.2+    150713 F51  0.0+  0.1-
    130609 F51  0.0-  0.0+    150227 F51  0.1+  0.0-    150713 F51  0.0+  0.0+
    130609 F51  0.2+  0.2-    150227 F51  0.2-  0.0+    150714 F51  0.2+  0.1-
    130702 F51  0.0-  0.1-    150227 F51  0.1-  0.0+    150714 F51  0.1+  0.1+
    130702 F51  0.1-  0.0+    150330 F51  0.1+  0.1+    150810 F51  0.1+  0.2+
    130702 F51  0.2-  0.2+    150330 F51  0.4+  0.1+    150810 F51  0.3+  0.2+
    130702 F51  0.1-  0.2+    150330 F51  0.1+  0.2+    150810 F51  0.1-  0.0+
    140404 F51  0.0+  0.1-    150330 F51  0.2+  0.2-    150810 F51  0.0-  0.1+
    140507 F51  0.1-  0.0-    150331 F51  0.1-  0.1+    160502 F51  0.1+  0.0-
    140507 F51  0.0-  0.0+    150331 F51  0.0+  0.1-    160502 F51 (0.5-  0.6-)
    140507 F51  0.0+  0.1-    150331 F51  0.1+  0.2+    160502 F51  0.2-  0.0+
    140523 F51  0.0-  0.1+    150331 F51  0.2-  0.0+    160607 F51  0.0-  0.1+
    140523 F51  0.1+  0.0+    150521 F51  0.0+  0.3-    160607 F51  0.2-  0.0-
    140528 F51  0.1+  0.2-    150521 F51  0.1-  0.1-    160607 F51  0.0+  0.1-
    140528 F51  0.1-  0.2+    150521 F51  0.0-  0.2-    160607 F51  0.3+  0.2-
    140528 F51  0.0-  0.0+    150521 F51  0.1-  0.2-    160628 F51  0.0+  0.1-
    140528 F51  0.0+  0.2+    150610 F51 (0.5+  0.3+)   160628 F51  0.0+  0.1-
    140624 F51  0.0+  0.1-    150610 F51  0.0-  0.3+    160628 F51  0.2+  0.0+
    140624 F51  0.1-  0.0+    150615 F51 (0.3-  0.3+)   160628 F51  0.2-  0.0+
    140624 F51  0.0+  0.1-    150615 F51  0.2+  0.0-    160705 F51  0.0+  0.2+
    140624 F51  0.1+  0.1+    150615 F51  0.1-  0.1-    160705 F51  0.1-  0.1-
    140702 F51  0.1-  0.1-    150615 F51  0.3-  0.1+    160705 F51  0.0-  0.0+
    
    Ephemeris:
    2010 JE215               a,e,i = 63.10, 0.57, 11                 q = 27.2913
    Date    TT    R. A. (2000) Decl.     Delta      r    Elong.  Phase     V
    2020 12 21    17 58 31.4 -16 36 15  28.9114 27.9349     6.8     0.2    22.9
    ...
    2021 01 05    18 01 09.9 -16 36 53  28.8876 27.9428    15.8     0.5    23.0
    ...
    2021 01 13    18 02 31.7 -16 36 48  28.8491 27.9470    23.1     0.8    23.0
    ...
    2021 01 19    18 03 31.0 -16 36 32  28.8089 27.9502    28.7     1.0    23.0
    2021 01 20    18 03 40.6 -16 36 29  28.8013 27.9507    29.7     1.0    23.0
    2021 01 21    18 03 50.2 -16 36 25  28.7934 27.9513    30.6     1.0    23.0
    ...
    2021 01 27    18 04 46.1 -16 35 57  28.7410 27.9545    36.4     1.2    23.0
    ...
    2021 02 04    18 05 55.9 -16 35 08  28.6583 27.9587    44.1     1.4    23.0
    ...
    2021 02 19    18 07 49.1 -16 33 02  28.4684 27.9667    58.6     1.7    23.1
    
    M. P. C. Staff               (C) Copyright 2021 MPC           M.P.E.C. 2021-B103
    


    Read MPEC 2021-B102 Read MPEC 2021-B104


    MPEC number:

    Enter an MPEC number in one of the following forms:

    • 1997-B01 (the full form)
    • J97B01 (the packed version of the full form)
    • B01 (the abbreviated form)